TimeEST,TemperatureF,Dew PointF,Humidity,Sea Level PressureIn,VisibilityMPH,Wind Direction,Wind SpeedMPH,Gust SpeedMPH,PrecipitationIn,Events,Conditions,WindDirDegrees,DateUTC
12:15 AM,15.6,5.5,64,30.22,10.0,SW,12.7,18.4,N/A,,Overcast,220,2013-02-02 05:15:00
12:34 AM,15.8,5.9,65,30.21,10.0,SSW,12.7,-,N/A,,Overcast,210,2013-02-02 05:34:00
12:54 AM,16.3,6.4,65,30.21,10.0,SW,10.4,-,N/A,,Overcast,220,2013-02-02 05:54:00
1:15 AM,16.7,6.8,65,30.20,10.0,SW,10.4,-,N/A,,Overcast,220,2013-02-02 06:15:00
1:34 AM,16.7,7.2,66,30.20,10.0,SW,8.1,17.3,N/A,,Overcast,230,2013-02-02 06:34:00
1:55 AM,17.1,7.5,66,30.19,10.0,SW,9.2,16.1,N/A,,Overcast,220,2013-02-02 06:55:00
2:14 AM,17.2,7.7,66,30.18,10.0,SW,12.7,16.1,N/A,,Overcast,230,2013-02-02 07:14:00
2:34 AM,17.6,7.7,65,30.18,10.0,SW,10.4,-,N/A,,Overcast,230,2013-02-02 07:34:00
2:54 AM,17.6,7.9,66,30.18,10.0,SW,10.4,-,N/A,,Overcast,230,2013-02-02 07:54:00
3:14 AM,17.6,8.1,66,30.17,10.0,SW,15.0,18.4,N/A,,Overcast,230,2013-02-02 08:14:00
3:34 AM,17.6,8.4,67,30.16,7.0,SSW,12.7,18.4,N/A,,Overcast,210,2013-02-02 08:34:00
3:54 AM,17.6,8.6,68,30.15,10.0,SW,13.8,17.3,N/A,,Overcast,220,2013-02-02 08:54:00
4:15 AM,17.6,9.0,69,30.14,7.0,SW,9.2,16.1,N/A,,Overcast,220,2013-02-02 09:15:00
4:34 AM,17.6,9.5,71,30.14,4.0,SW,9.2,-,N/A,Snow,Light Snow,230,2013-02-02 09:34:00
4:54 AM,17.6,10.0,72,30.13,5.0,SSW,8.1,-,N/A,Snow,Light Snow,210,2013-02-02 09:54:00
5:14 AM,17.4,11.5,78,30.12,2.5,SW,10.4,-,N/A,Snow,Light Snow,220,2013-02-02 10:14:00
5:34 AM,17.6,12.9,82,30.11,1.8,SSW,9.2,-,N/A,Snow,Light Snow,210,2013-02-02 10:34:00
5:54 AM,17.6,13.1,83,30.10,1.8,SSW,5.8,-,N/A,Snow,Light Snow,200,2013-02-02 10:54:00
6:14 AM,17.6,13.5,84,30.09,2.5,SSW,6.9,-,N/A,Snow,Light Snow,210,2013-02-02 11:14:00
6:35 AM,18.0,13.5,83,30.09,5.0,SSW,8.1,-,N/A,Snow,Light Snow,210,2013-02-02 11:35:00
7:14 AM,18.5,13.8,82,30.08,4.0,SSW,9.2,-,N/A,Snow,Light Snow,200,2013-02-02 12:14:00
7:35 AM,18.5,14.0,83,30.08,4.0,SSW,8.1,-,N/A,Snow,Light Snow,200,2013-02-02 12:35:00
7:54 AM,18.9,14.4,83,30.07,2.5,SSW,10.4,-,N/A,Snow,Light Snow,210,2013-02-02 12:54:00
8:14 AM,18.9,14.2,82,30.07,10.0,SSW,10.4,-,N/A,Snow,Light Snow,200,2013-02-02 13:14:00
8:34 AM,19.2,14.5,82,30.07,3.0,SSW,6.9,-,N/A,Snow,Light Snow,210,2013-02-02 13:34:00
8:54 AM,19.4,15.1,83,30.06,1.2,SSW,6.9,-,N/A,Snow,Light Snow,210,2013-02-02 13:54:00
9:14 AM,19.8,15.1,82,30.06,3.0,SSW,5.8,-,N/A,Snow,Light Snow,200,2013-02-02 14:14:00
9:34 AM,20.1,15.6,83,30.05,1.5,SSW,8.1,-,N/A,Snow,Light Snow,200,2013-02-02 14:34:00
9:55 AM,20.3,15.8,83,30.04,1.5,SSW,8.1,-,N/A,Snow,Light Snow,210,2013-02-02 14:55:00
10:14 AM,20.8,15.6,80,30.04,7.0,SSW,8.1,-,N/A,Snow,Light Snow,210,2013-02-02 15:14:00
10:35 AM,21.2,15.8,80,30.03,3.0,SSW,6.9,-,N/A,Snow,Light Snow,210,2013-02-02 15:35:00
10:54 AM,21.7,16.0,78,30.02,3.0,SSW,5.8,-,N/A,Snow,Light Snow,210,2013-02-02 15:54:00
11:15 AM,22.1,16.5,79,30.02,2.5,SSW,6.9,-,N/A,Snow,Light Snow,210,2013-02-02 16:15:00
11:34 AM,22.6,16.7,78,30.02,2.5,SW,8.1,-,N/A,Snow,Light Snow,220,2013-02-02 16:34:00
11:54 AM,22.8,16.7,77,30.01,2.5,SW,6.9,-,N/A,Snow,Light Snow,230,2013-02-02 16:54:00
12:14 PM,23.2,16.9,77,29.99,4.0,SSW,6.9,-,N/A,Snow,Light Snow,200,2013-02-02 17:14:00
12:34 PM,23.5,17.1,76,29.98,4.0,SW,8.1,-,N/A,Snow,Light Snow,220,2013-02-02 17:34:00
12:55 PM,23.9,17.4,76,29.97,5.0,SW,5.8,-,N/A,Snow,Light Snow,220,2013-02-02 17:55:00
1:14 PM,24.3,17.6,76,29.97,5.0,WSW,4.6,-,N/A,Snow,Light Snow,250,2013-02-02 18:14:00
1:35 PM,24.6,17.6,75,29.97,3.0,West,3.5,-,N/A,Snow,Light Snow,260,2013-02-02 18:35:00
1:54 PM,25.2,18.3,75,29.96,2.0,SW,4.6,-,N/A,Snow,Light Snow,220,2013-02-02 18:54:00
2:15 PM,25.3,19.0,77,29.96,2.0,Calm,Calm,-,N/A,Snow,Light Snow,0,2013-02-02 19:15:00
2:34 PM,25.0,18.5,76,29.95,3.0,SW,3.5,-,N/A,Snow,Light Snow,220,2013-02-02 19:34:00
2:54 PM,25.2,19.0,78,29.95,1.5,Calm,Calm,-,N/A,Snow,Light Snow,0,2013-02-02 19:54:00
3:15 PM,25.3,19.8,79,29.95,1.5,WSW,3.5,-,N/A,Snow,Light Snow,250,2013-02-02 20:15:00
3:34 PM,26.6,20.5,78,29.96,1.2,Calm,Calm,-,N/A,Snow,Light Snow,0,2013-02-02 20:34:00
3:55 PM,25.5,20.5,81,29.96,0.8,Calm,Calm,-,N/A,Snow,Light Snow,0,2013-02-02 20:55:00
4:14 PM,24.8,21.2,86,29.96,0.8,Calm,Calm,-,N/A,Snow,Light Snow,0,2013-02-02 21:14:00
4:35 PM,24.3,20.3,85,29.97,0.8,North,5.8,-,N/A,Snow,Light Snow,350,2013-02-02 21:35:00
4:54 PM,23.9,19.0,82,29.97,2.0,NNW,8.1,-,N/A,Snow,Light Snow,340,2013-02-02 21:54:00
5:14 PM,23.7,18.0,79,29.98,5.0,North,6.9,-,N/A,,Haze,350,2013-02-02 22:14:00
5:35 PM,23.4,17.1,77,29.99,4.0,NNW,5.8,-,N/A,Snow,Light Snow,330,2013-02-02 22:35:00
5:54 PM,23.0,17.2,79,29.99,3.0,NNW,6.9,-,N/A,Snow,Light Snow,340,2013-02-02 22:54:00
6:14 PM,22.6,17.4,80,30.00,3.0,North,6.9,-,N/A,Snow,Light Snow,350,2013-02-02 23:14:00
6:35 PM,22.5,15.8,76,30.00,10.0,North,4.6,-,N/A,,Overcast,350,2013-02-02 23:35:00
7:14 PM,22.1,15.1,74,30.02,7.0,NNE,8.1,-,N/A,Snow,Light Snow,30,2013-02-03 00:14:00
7:35 PM,20.1,14.0,77,30.02,4.0,North,10.4,-,N/A,Snow,Light Snow,360,2013-02-03 00:35:00
7:54 PM,19.4,13.1,76,30.02,10.0,North,9.2,-,N/A,,Overcast,10,2013-02-03 00:54:00
8:14 PM,18.7,12.0,75,30.03,10.0,North,8.1,16.1,N/A,,Overcast,350,2013-02-03 01:14:00
8:35 PM,17.8,9.5,70,30.04,10.0,NNW,6.9,-,N/A,,Overcast,340,2013-02-03 01:35:00
8:54 PM,16.9,8.2,69,30.03,10.0,North,5.8,-,N/A,,Mostly Cloudy,10,2013-02-03 01:54:00
9:15 PM,15.8,7.7,70,30.03,10.0,North,4.6,-,N/A,,Scattered Clouds,350,2013-02-03 02:15:00
9:34 PM,15.6,7.9,72,30.03,10.0,Calm,Calm,-,N/A,,Clear,0,2013-02-03 02:34:00
9:54 PM,15.4,8.4,74,30.03,10.0,NNW,3.5,-,N/A,,Clear,340,2013-02-03 02:54:00
10:14 PM,15.6,8.6,74,30.03,10.0,NW,3.5,-,N/A,,Scattered Clouds,310,2013-02-03 03:14:00
10:34 PM,16.3,9.0,73,30.03,10.0,NW,3.5,-,N/A,,Overcast,320,2013-02-03 03:34:00
10:54 PM,16.3,8.6,72,30.02,10.0,NW,4.6,-,N/A,,Overcast,320,2013-02-03 03:54:00
11:14 PM,16.2,8.1,70,30.02,10.0,NW,4.6,-,N/A,,Overcast,310,2013-02-03 04:14:00
11:35 PM,16.2,8.1,70,30.02,10.0,NW,3.5,-,N/A,,Overcast,310,2013-02-03 04:35:00
11:54 PM,16.3,7.5,68,30.02,10.0,NW,3.5,-,N/A,,Overcast,320,2013-02-03 04:54:00